Location: Mercogliano
(40.9167°N, 14.7333°E)
Time: 23:54:31
(UTC+00:00)

NOSS 3-2 (A) - Visible Passes

Search period start: 23 January 2021 00:00
Search period end: 02 February 2021 00:00
Orbit: 789 x 1419 km, 63.4° (Epoch: 22 January)

Date Brightness Start Highest point End Pass type
(mag) Time Alt. Az. Time Alt. Az. Time Alt. Az.
23 Jan 4.4 04:19:45 10° S 04:24:56 43° ESE 04:30:43 10° NE visible
24 Jan 5.3 03:35:30 10° SSE 03:39:53 25° ESE 03:44:40 10° ENE visible
24 Jan 3.5 05:24:41 10° SW 05:30:10 52° NW 05:36:25 10° NNE visible
25 Jan 5.9 02:52:25 10° SE 02:55:00 13° ESE 02:57:40 10° ENE visible
25 Jan 3.2 04:39:06 10° SW 04:44:39 84° NW 04:51:01 10° NNE visible
26 Jan 3.8 03:55:43 21° S 03:59:21 59° ESE 04:05:27 10° NE visible
26 Jan 4.3 05:45:42 10° W 05:50:38 28° NW 05:56:10 10° NNE visible
27 Jan 4.6 03:13:00 30° SE 03:14:13 33° ESE 03:19:37 10° NE visible
27 Jan 3.8 05:00:28 15° WSW 05:04:50 41° NW 05:10:55 10° NNE visible
28 Jan 5.6 02:29:57 18° E 02:29:57 18° E 02:33:15 10° ENE visible
28 Jan 3.2 04:17:23 43° WSW 04:19:13 65° NW 04:25:35 10° NNE visible
29 Jan 3.3 03:34:06 76° E 03:34:06 76° E 03:40:07 10° NE visible
29 Jan 4.6 05:21:32 13° W 05:25:28 23° NW 05:30:37 10° NNE visible
30 Jan 4.8 02:50:40 33° ENE 02:50:40 33° ENE 02:54:26 10° NE visible
30 Jan 4.0 04:38:05 29° WNW 04:39:33 33° NW 04:45:24 10° NNE visible
31 Jan 5.9 02:07:06 15° ENE 02:07:06 15° ENE 02:08:25 10° NE visible
31 Jan 3.7 03:54:31 48° NNW 03:54:31 48° NNW 04:00:06 10° NNE visible
31 Jan 5.2 05:43:03 10° WNW 05:46:30 15° NNW 05:50:13 10° NNE visible
01 Feb 4.4 03:10:50 38° NNE 03:10:50 38° NNE 03:14:42 10° NNE visible
01 Feb 4.8 04:58:15 17° NW 05:00:21 20° NNW 05:05:03 10° NNE visible
